STARLINK-32285, 60355

Orbit data source: Space-Track

STARLINK-32285, 60355 is a payload satellite owned by SpaceX/Seattle (US) in LEO that was launched on Sun, 04 Aug 2024 UTC via an FALCON 9 launch vehicle from the Air Force Western Test Range (AFWTR). Payload-class satellites include a variety of spacecraft equipped with specific instruments for various scientific and technological missions. These include communications satellites like Starlink; space stations such as the ISS; scientific satellites like the Hubble; Earth observation satellites from companies like Planet Labs, Umbra, and HawkEye 360; GPS; miniature CubeSats for education and research; and military/defense satellites.

Loading next visibility...
Identifier
60355, 2024-138A
Orbit
LEO
Country
Flag of USUS
Related business
Manufacturer
SpaceX/Seattle
Mission
Operational Commercial Communications
Bus & Motor
STARLINK V2M, Unknown motor
Mass
730 kg wet, ~700 kg dry
Launch date (UTC)
2024-08-04 (1 year ago)
Launch vehicle
FALCON 9
Launch site
Air Force Western Test Range (AFWTR)
Object type
Payload
Rocket body
Debris
Shape & HBR
Box + 2 Pan, 17.7 m
Radar Cross Section
33.884 m², Large (>1 m²)

Expand to show TLE details & history
Last TLE update: 23 hours ago

TLE from 23 hours ago
0 STARLINK-32285
1 60355U 24138A   25353.36108293 -.00000327  00000-0  10921-5 0  9998
2 60355  53.1613 322.3910 0001302 111.8749 248.2390 15.30201374 78332
Epoch: 2025-12-19T08:39Z
TLE epoch observation values (Epoch: 2025-12-19T08:39:57.565Z)
Latitude
-0.00003°
Longitude
104.19778°
Altitude
476.442 km
Speed
7.629 km/s
True Right ascension
21h 29m 33s
True Declination
0° 00' 00"
Sunlit
Object was in daylight at epoch
Visualization orbit readout
Latitude
Unknown
Longitude
Unknown
Altitude
Unknown
Speed
Unknown
Apparent Right ascension
Unknown
Apparent Declination
Unknown
Sunlit
N/A
Visualization observer readout
Local Sidereal Time
06:18:41
Azimuth
Unknown
Elevation
Unknown
Doppler factor
Unknown
Orbital elements
Apogee altitude
476.36 km
Perigee altitude
474.575 km
Semi-major axis
6,853.604 km
Eccentricity
0.00013
Inclination
53.1613°
RAAN
322.391°
Arg. of periapsis
111.8749°
True anomaly
248.22514°
Mean anomaly
248.239°
Eccentric anomaly
248.23207°
Mean motion
3.82529 °/min
Orbital period
94.11 mins
BSTAR
0.0000010921
Loading maneuver chart data...
Computing Atmospheric mass density...
Loading historical data...
Loading historical data...
Loading historical data...
Loading historical data...
Loading historical data...
Loading historical data...
Loading historical data...

Documentation

Showing up to 5 results
|